Location: Palomar Mountain Lodge
(33.3110°N, 116.8495°W)
Time: 08:24:15
(UTC-07:00)

NOSS 2-2 (E) - Pass Details

Date: 19 May 2017
Orbit: 549 x 1659 km, 63.3° (Epoch: 20 May)

Event Time Altitude Azimuth Distance (km) Brightness Sun altitude
Rises 21:01:51 0° 193° (SSW) 2,716 6.6 -14.9°
Reaches altitude 10° 21:04:05 10° 186° (S) 1,808 5.7 -15.2°
Maximum altitude 21:07:48 42° 115° (ESE) 809 3.7 -15.9°
Drops below altitude 10° 21:11:48 10° 44° (NE) 1,953 6.1 -16.5°
Sets 21:14:18 0° 38° (NE) 2,967 7.1 -16.9°
